Wind_Speed
27 27 27 27 27 27 27 27 27 27 28 28 28 29 29 29 29 29 30 31 32 33 34 34 35 36 36 36 36 36 35 34 34 33 32 31 31 31 31 31 32 33 33 34 34 34 34 33 33 33 33 33 34 34 34 34 35 35 35 35 34 34 33 32 30 29 28 27 27
28 28 28 28 28 27 26 26 26 27 27 28 29 30 30 30 30 30 30 31 33 33 33 33 33 34 34 35 35 35 34 34 33 33 32 32 31 31 31 31 31 32 32 33 33 33 33 33 32 32 32 32 32 33 33 33 34 34 34 34 34 34 33 31 30 29 28 27 26
29 29 29 28 28 27 27 26 26 27 28 28 29 30 30 30 30 30 30 31 32 32 32 32 32 32 33 34 34 34 34 33 33 33 32 32 31 31 31 31 31 31 31 32 32 32 32 32 31 31 31 31 31 32 32 33 33 33 33 33 33 33 32 31 30 29 27 26 25
29 29 29 29 29 29 28 27 27 28 28 28 29 29 30 30 30 30 30 30 30 31 31 31 31 31 32 32 32 33 33 33 32 32 32 31 31 31 30 30 30 30 30 31 30 31 30 30 30 30 30 30 30 31 31 32 32 32 32 32 31 30 30 29 29 28 27 26 25
29 30 30 30 30 31 30 29 28 29 29 29 28 28 29 30 30 29 29 29 29 30 31 31 30 30 30 30 31 31 31 31 31 31 31 31 31 31 30 30 30 29 29 29 29 29 29 28 28 28 28 29 29 29 30 30 31 31 31 30 29 28 27 27 26 26 26 25 25
29 30 30 30 31 31 30 29 29 29 29 29 28 28 29 29 29 29 29 29 30 30 30 30 30 29 29 29 29 29 30 30 30 30 30 30 30 30 30 29 29 28 28 27 27 27 27 27 26 27 27 27 27 27 27 28 28 28 28 28 27 26 26 25 25 25 24 24 24
29 30 30 30 30 31 30 30 29 29 29 29 29 29 30 30 30 30 31 31 30 30 29 29 29 29 28 28 28 28 28 28 28 28 28 29 29 29 29 28 27 26 26 26 25 25 25 25 25 25 26 26 26 26 26 26 26 26 26 26 26 25 24 24 24 24 24 24 24
29 29 30 30 30 30 31 30 29 29 28 29 29 30 31 31 31 31 31 30 30 29 29 28 28 28 28 27 27 26 26 26 26 26 27 27 28 28 27 26 25 24 24 24 24 24 24 24 24 24 25 26 25 25 25 24 24 24 24 24 24 24 24 24 24 24 24 23 23
28 29 29 29 30 30 30 30 30 29 29 29 30 31 31 31 31 31 31 30 30 29 28 27 27 26 26 25 25 24 24 24 24 24 25 26 26 26 25 24 23 22 22 22 22 22 22 22 23 23 24 25 24 24 24 23 22 22 23 23 23 24 24 24 24 24 24 24 24
27 28 29 29 29 30 30 30 30 30 30 30 30 30 31 31 31 31 31 30 29 28 27 26 25 25 24 24 23 23 22 22 22 23 23 24 24 24 24 23 22 21 21 21 20 20 20 20 21 22 23 23 23 23 23 22 22 22 22 22 23 23 23 24 24 24 24 24 24
28 29 29 29 29 29 29 29 30 30 30 30 30 30 30 30 30 31 30 29 27 26 25 25 24 23 23 23 23 22 21 21 21 21 22 22 23 23 23 22 21 20 20 19 19 19 19 19 19 20 20 21 21 21 22 22 22 22 22 22 22 23 23 24 24 24 24 24 24
29 29 29 29 29 29 29 29 30 30 30 30 30 29 29 29 30 29 28 27 26 25 25 24 23 23 22 22 22 22 21 21 21 21 21 22 22 23 22 21 20 19 19 19 18 18 18 18 19 19 19 20 21 21 22 22 22 22 22 22 22 22 23 23 24 24 24 24 24
29 29 29 29 29 29 29 30 30 29 30 30 30 29 28 28 28 27 27 26 25 24 23 23 22 22 22 22 22 22 21 21 21 21 21 22 23 22 21 20 19 19 18 18 18 18 18 19 19 19 19 20 20 21 21 21 21 21 21 21 22 22 23 24 24 24 24 24 24
29 29 29 29 29 29 29 30 29 29 29 29 29 28 27 26 26 25 25 25 24 23 22 22 21 21 22 22 22 22 22 22 21 21 22 22 23 22 21 21 20 19 19 18 19 19 19 19 19 19 19 20 20 20 20 19 19 19 19 20 21 23 23 24 24 25 25 25 25
29 29 29 29 29 29 29 29 29 28 27 28 28 27 26 24 24 24 24 23 23 23 22 21 21 21 22 22 22 23 23 22 22 22 22 23 23 22 21 21 20 20 20 19 19 19 19 18 18 18 18 18 18 18 18 18 19 19 20 21 22 23 24 24 25 25 26 25 25
30 30 29 29 29 29 29 29 28 27 26 26 26 25 25 24 23 23 23 23 23 23 23 22 22 22 22 22 23 23 23 23 23 23 23 23 23 22 21 21 21 21 21 20 19 19 18 17 17 17 17 18 18 18 19 21 23 25 25 24 25 26 27 27 27 27 26 25 25
30 30 30 30 30 29 29 28 27 26 25 25 25 25 24 24 24 23 23 23 24 24 24 24 24 24 24 24 24 24 24 24 24 24 24 24 23 22 21 21 20 20 19 19 18 17 17 17 17 18 19 20 21 23 24 25 26 27 27 28 29 30 30 29 28 27 26 25 24
30 30 30 30 30 30 30 29 27 26 25 25 24 24 25 25 24 24 24 25 25 25 26 25 25 26 26 26 25 25 25 25 25 25 25 24 23 22 21 20 19 18 17 17 17 17 18 19 20 21 22 23 24 25 26 26 27 27 27 28 28 28 27 27 27 26 24 23 22
30 30 31 31 31 31 30 29 28 27 25 25 24 24 24 25 25 25 25 26 26 27 27 26 26 27 27 27 27 26 26 26 26 25 24 23 23 21 20 19 18 17 17 17 19 21 23 24 24 24 24 25 25 26 27 27 27 27 27 26 25 24 25 25 25 23 22 21 21
31 31 31 31 31 31 30 29 28 27 26 25 24 24 25 25 25 26 26 27 27 27 27 27 27 28 28 28 27 27 26 26 25 24 23 22 22 21 20 19 19 19 20 23 25 26 26 26 25 25 26 27 27 28 28 28 27 26 24 22 21 22 23 23 23 22 21 21 20
31 31 31 31 31 30 29 29 28 27 26 25 25 25 25 25 26 26 27 27 27 27 27 28 28 29 29 28 27 27 27 26 25 23 22 21 21 21 21 21 21 22 24 27 27 26 25 25 25 25 26 27 28 28 28 27 25 23 21 20 20 21 23 23 22 22 22 22 22
32 31 31 30 29 29 28 28 28 27 27 26 26 26 26 26 26 26 26 26 26 27 27 28 29 29 29 29 28 27 27 27 26 24 23 22 22 22 22 22 22 23 24 25 25 24 23 23 23 24 24 25 26 27 27 25 24 22 21 21 22 23 23 23 23 22 23 23 23
32 30 29 28 28 27 27 27 27 27 26 26 26 26 26 26 26 25 25 26 26 26 27 28 29 29 28 28 27 27 27 27 27 26 25 25 25 24 23 23 23 24 24 23 23 22 21 21 22 23 24 24 24 24 24 24 23 22 23 23 24 24 24 23 23 23 24 24 24
31 29 28 27 27 27 26 26 26 25 25 25 25 24 24 25 25 25 25 25 26 26 27 27 27 27 27 26 26 26 27 28 28 28 28 28 27 25 24 24 24 23 22 22 21 20 20 20 21 22 22 23 23 23 23 23 23 23 24 24 24 24 24 23 24 25 25 25 24
30 28 27 27 27 27 27 26 25 24 24 23 22 21 21 21 22 23 23 24 25 25 26 26 26 26 25 25 24 25 26 28 29 31 32 31 29 26 25 26 25 23 21 20 19 18 17 18 19 20 21 22 23 23 23 23 23 23 24 24 24 24 23 24 24 25 26 26 25
28 27 27 28 28 28 27 26 26 25 25 24 22 20 19 19 18 19 19 20 22 24 25 26 26 25 25 25 24 25 26 28 30 32 33 32 29 26 25 26 25 22 20 19 18 17 16 17 18 20 21 22 23 23 24 24 24 24 24 24 24 24 24 25 25 26 26 26 25
28 27 27 28 29 29 29 28 28 28 27 25 23 21 19 18 18 16 14 15 17 21 23 25 25 25 25 25 25 26 27 28 31 32 32 30 26 24 24 25 24 22 20 18 17 16 16 17 19 20 21 23 24 24 24 24 24 24 24 24 24 25 25 26 26 27 26 26 25
29 29 29 29 29 30 30 30 30 29 27 23 21 20 20 18 18 15 13 13 15 19 23 25 24 25 26 26 27 27 28 29 30 31 30 27 25 24 24 25 24 22 20 18 17 17 17 19 20 22 23 24 24 25 25 25 24 24 24 24 25 25 26 27 27 26 26 25 24
30 30 30 30 31 31 31 30 29 26 23 20 20 21 21 20 17 16 16 18 20 23 25 26 26 27 27 28 28 28 28 29 29 30 29 27 26 25 26 26 25 22 20 18 17 17 18 20 22 23 24 24 25 25 25 25 25 25 24 24 25 25 26 27 26 26 25 24 23
31 31 31 32 33 33 31 30 27 23 20 19 18 17 16 14 13 13 16 19 22 25 28 29 29 29 30 29 29 29 29 29 29 29 28 27 27 27 28 28 26 23 20 18 18 19 20 21 23 24 24 24 25 25 26 26 26 25 25 25 25 25 26 26 26 26 25 23 22
32 33 33 33 32 31 30 28 26 23 21 19 16 13 11 9 6 7 11 16 20 24 27 28 30 31 31 30 30 30 30 29 29 29 29 28 28 29 29 29 26 23 20 19 20 21 22 23 24 24 24 24 25 25 26 26 26 26 26 25 25 25 25 25 25 25 24 22 21
33 33 33 33 31 30 29 27 26 23 20 16 11 9 9 7 8 11 13 15 18 21 25 27 29 30 30 30 30 30 30 30 30 30 30 29 29 29 29 29 27 24 21 21 22 23 24 24 24 24 24 23 24 24 25 26 26 26 26 25 24 24 23 23 23 23 22 20 19
33 33 33 33 31 30 29 27 25 20 15 11 8 8 9 10 14 16 16 16 18 21 25 27 29 30 30 30 31 31 31 31 31 31 30 29 28 28 28 29 27 24 23 24 25 25 25 25 24 23 22 22 22 23 24 25 26 25 25 24 23 22 22 21 21 21 20 18 17
32 32 32 33 32 31 29 26 21 16 11 7 7 9 10 10 12 13 14 16 18 22 25 28 30 31 31 32 32 31 31 31 31 31 30 29 28 28 28 28 27 25 24 24 25 25 25 24 23 22 21 20 20 21 23 24 24 24 23 22 21 20 19 19 19 18 17 16 15
32 32 32 32 33 32 29 24 19 14 10 6 7 9 9 9 10 12 15 17 20 23 26 28 29 30 31 32 32 31 31 31 31 30 29 27 27 27 27 27 25 24 23 23 23 23 23 22 21 20 19 18 18 20 21 22 22 21 20 19 18 17 17 16 16 15 14 13 12
33 32 32 32 32 31 27 22 18 15 11 7 7 8 9 9 9 11 15 20 22 25 26 28 29 29 30 31 31 31 31 31 30 29 27 26 26 26 25 24 23 21 20 19 20 20 20 20 20 19 18 17 17 18 19 20 20 18 17 16 15 14 13 12 11 10 10 9 9
33 33 32 31 31 29 26 22 19 17 14 10 8 8 9 10 10 11 15 21 24 26 27 28 28 29 29 29 29 29 29 28 27 26 25 25 24 24 22 21 19 17 16 16 16 17 18 19 19 19 18 17 16 17 18 18 18 16 15 13 12 11 10 9 7 7 7 7 7
33 33 32 31 29 27 25 23 21 20 17 14 10 10 10 10 10 11 16 23 25 27 27 28 28 28 28 28 26 25 24 23 23 23 23 22 22 20 19 17 15 14 14 14 15 16 17 18 18 18 17 16 16 16 17 17 17 16 14 12 11 9 8 7 7 7 7 8 8
32 32 31 30 29 27 25 23 22 21 20 17 13 11 11 11 11 13 18 24 26 26 27 27 26 26 26 25 22 19 17 17 17 18 18 18 18 17 15 14 13 12 13 14 15 16 16 16 16 16 15 15 15 15 16 17 16 15 14 12 11 9 8 8 9 9 9 9 9
30 30 30 29 28 27 25 23 22 21 19 18 15 13 12 13 14 17 22 24 25 25 25 24 23 22 22 22 19 17 15 14 14 14 15 15 15 14 14 13 13 12 12 13 14 14 14 13 13 12 12 12 13 14 16 16 16 15 14 13 12 11 11 11 11 10 10 9 9
28 28 28 28 28 27 25 23 20 19 18 18 15 14 13 13 16 21 24 24 24 23 23 22 20 20 20 20 18 17 15 14 13 13 13 13 13 13 13 13 14 14 13 12 12 12 11 10 10 9 9 10 12 14 16 16 16 15 14 13 13 13 14 13 12 11 10 10 9
Wind_Direction
193 193 192 192 193 194 195 196 198 199 200 200 200 201 203 203 204 207 208 209 209 210 211 212 213 214 215 216 217 218 219 220 223 225 227 228 230 231 232 232 232 232 231 230 230 230 230 231 232 232 233 233 232 230 228 227 226 226 227 227 227 228 229 230 231 232 233 233 234
197 197 197 196 197 197 198 199 200 202 203 204 204 205 206 206 207 209 211 212 213 213 214 214 215 216 217 218 220 220 221 222 223 225 227 228 229 231 231 232 233 233 232 232 232 232 232 233 233 234 234 235 233 231 229 229 228 228 228 229 230 231 231 231 233 235 236 237 238
199 200 200 199 199 199 200 201 203 204 205 207 208 209 209 210 210 212 213 215 216 216 216 216 217 219 220 221 222 223 223 224 224 226 227 228 229 230 231 232 233 233 234 234 234 234 234 234 235 235 236 236 235 233 231 230 230 230 230 231 232 232 233 233 234 236 238 239 240
201 201 201 202 202 203 203 204 206 207 208 209 210 212 213 213 213 214 216 217 218 218 218 219 220 221 222 223 224 225 225 226 226 226 227 228 229 230 231 232 233 234 234 235 235 235 235 236 236 236 236 237 236 235 233 232 231 231 231 232 233 234 234 235 236 238 239 241 242
202 203 204 204 206 206 207 208 209 210 211 211 212 213 214 215 215 216 217 219 220 221 221 221 222 223 224 225 226 227 227 227 227 227 227 227 228 229 230 231 232 233 234 235 235 235 236 236 236 236 236 237 237 236 235 234 233 232 232 233 234 235 236 237 238 240 241 243 244
203 205 206 207 208 209 210 210 212 213 213 213 213 214 215 216 216 217 218 220 222 223 224 224 224 224 225 227 228 228 229 229 228 228 227 227 228 229 230 231 231 232 233 234 235 235 236 236 235 235 235 236 236 236 236 235 234 233 233 234 235 236 238 239 242 243 244 246 247
206 206 207 209 210 211 211 212 213 214 215 214 214 215 216 217 217 218 219 221 222 224 225 225 225 225 226 228 228 229 230 230 229 229 228 227 228 229 229 230 230 231 232 233 234 235 235 235 235 235 235 235 234 235 236 236 235 235 235 236 237 239 240 242 245 246 247 248 249
208 209 209 210 211 212 212 212 213 214 215 215 216 218 219 219 219 220 221 221 222 224 225 226 226 226 227 228 229 229 230 230 229 229 228 227 227 228 229 229 229 230 231 232 233 234 234 235 234 234 234 234 234 234 236 236 236 236 237 238 240 241 243 245 247 248 249 249 249
210 211 212 212 213 214 214 214 214 215 216 217 218 220 221 222 222 222 222 222 223 224 225 226 226 226 227 227 228 229 229 229 229 228 227 227 226 227 227 227 227 228 229 230 232 233 233 234 233 233 234 234 234 235 237 237 238 238 239 240 241 243 244 246 247 248 248 248 248
210 212 212 213 214 215 215 216 216 217 218 219 221 222 223 223 224 224 224 223 224 224 224 225 226 225 225 226 227 227 228 228 228 227 226 224 224 224 225 225 225 225 227 228 229 231 231 232 232 233 234 235 236 237 239 240 240 240 241 242 243 243 244 245 246 247 247 247 247
211 212 212 213 214 216 216 216 217 218 219 220 222 223 224 224 225 225 225 225 223 223 223 225 225 224 224 224 224 225 226 226 226 225 224 223 222 222 222 223 223 224 225 226 227 228 229 230 230 232 233 235 237 238 240 241 241 242 243 244 244 244 244 245 246 246 246 246 246
211 212 213 214 215 216 216 217 217 219 220 221 222 223 224 225 225 225 224 223 222 222 223 224 224 223 223 222 222 222 222 223 223 222 221 220 220 220 220 220 221 222 223 225 226 227 228 229 230 232 234 236 238 239 240 241 241 242 243 244 245 246 246 247 247 247 247 247 246
212 212 214 215 215 215 216 217 218 219 220 221 222 223 223 225 225 225 223 222 221 221 222 223 223 223 222 220 219 219 219 219 220 219 218 217 217 217 216 216 217 219 221 224 226 227 228 230 231 233 235 237 238 239 240 241 242 243 245 246 248 249 250 250 250 249 248 246 245
212 212 213 214 215 215 216 217 218 219 220 221 221 222 222 223 224 224 223 221 221 220 220 221 222 223 222 220 219 218 217 216 216 215 215 214 214 214 213 213 215 217 220 224 227 229 230 231 233 234 236 237 238 240 241 242 244 247 250 252 253 253 253 253 253 250 248 245 244
213 213 213 214 215 215 216 216 217 218 219 220 221 221 221 221 222 223 222 221 220 219 219 219 220 221 221 220 219 218 217 215 213 212 211 211 211 211 212 213 215 218 221 225 227 229 230 231 232 232 233 234 235 238 240 242 245 247 250 252 254 255 257 257 254 251 247 245 243
213 213 213 214 214 215 216 216 217 218 218 218 219 219 218 218 220 221 221 219 219 218 218 218 218 219 219 219 218 218 216 213 211 210 208 208 209 210 212 214 217 220 223 225 226 227 228 228 228 229 230 232 236 241 245 246 246 246 246 248 253 257 260 259 254 249 246 245 243
213 213 214 214 214 215 215 215 216 216 216 216 217 216 216 216 217 218 219 218 217 216 216 217 217 217 216 216 216 214 212 209 209 208 208 208 209 211 213 216 218 221 222 222 221 221 222 224 227 232 235 239 245 249 250 248 246 244 246 249 254 258 258 254 249 245 244 243 242
213 214 214 214 214 215 215 215 215 215 215 215 214 214 214 214 214 215 217 218 217 215 214 215 216 216 215 214 213 210 208 206 206 206 207 207 209 211 213 216 216 215 214 214 217 222 227 232 236 239 242 244 247 249 247 245 244 245 248 253 257 256 251 245 242 241 242 243 243
213 213 213 214 214 215 215 215 214 214 214 214 213 213 213 213 213 214 216 217 217 216 214 214 214 215 215 214 211 208 205 204 204 205 206 207 208 210 211 211 209 208 213 224 236 243 245 246 245 244 243 243 243 242 241 240 242 246 252 257 257 252 245 239 238 241 244 246 246
214 214 214 214 214 215 215 214 214 214 214 214 213 212 212 212 213 214 214 215 216 216 215 213 212 212 212 211 208 205 203 202 204 206 208 209 208 207 206 206 210 221 236 249 255 255 253 251 249 247 245 243 242 240 239 240 243 247 253 256 253 246 240 238 241 245 248 247 244
214 214 214 215 214 214 214 214 214 213 213 214 213 213 212 213 213 213 214 215 215 215 214 213 212 211 209 207 204 202 201 201 205 209 210 208 205 203 205 211 222 238 251 258 258 256 253 251 250 250 249 247 246 244 243 243 245 248 250 249 244 240 239 240 243 245 245 243 241
216 215 215 215 214 214 214 214 214 214 214 214 215 215 214 213 212 213 214 214 214 213 212 212 212 210 207 204 201 200 201 203 209 211 210 206 202 203 210 222 234 244 251 254 254 253 251 252 252 253 253 252 252 251 250 248 247 245 243 241 239 238 239 241 242 241 241 241 243
215 214 214 214 213 213 213 213 213 213 214 214 215 214 213 211 210 210 211 211 211 212 211 211 211 209 206 204 202 201 201 201 205 206 205 203 202 206 217 230 239 245 248 250 250 250 250 252 255 256 257 257 257 257 255 252 248 243 239 238 238 238 240 240 239 239 240 243 247
215 213 212 212 212 211 210 210 209 209 210 210 210 209 208 206 204 204 206 207 208 209 211 212 212 208 204 201 200 199 198 195 194 196 198 201 204 211 223 234 240 243 245 247 248 250 252 254 256 258 259 260 260 259 256 252 247 243 240 239 238 238 239 238 238 238 241 245 249
214 212 211 210 208 207 205 203 201 199 198 197 196 195 194 195 196 198 201 204 205 206 207 209 211 207 201 196 195 195 193 191 189 189 192 197 204 215 227 236 239 241 242 243 245 248 251 255 257 259 260 261 260 259 256 252 248 244 242 240 239 238 237 237 237 239 242 246 250
212 211 209 207 203 200 197 195 193 190 186 182 176 171 168 170 176 184 191 197 201 204 205 206 204 200 194 191 190 190 190 190 190 190 191 194 201 213 226 232 233 234 236 238 241 244 248 252 255 257 259 259 258 256 253 251 250 247 244 242 240 238 237 236 237 240 244 247 249
210 208 205 202 197 194 192 191 189 185 179 173 167 162 159 158 157 162 173 187 198 203 205 204 201 195 190 187 187 187 189 191 193 195 196 198 204 213 221 225 226 228 231 235 238 242 246 249 252 254 256 256 254 252 250 250 250 249 246 243 241 240 239 239 240 242 244 246 248
206 202 199 195 191 189 187 185 182 179 178 178 180 179 176 171 162 166 182 197 203 205 204 202 201 195 189 186 186 188 191 195 198 199 202 206 212 219 223 224 224 227 231 235 238 241 245 248 251 252 253 253 251 250 249 249 249 249 247 244 242 242 242 242 243 244 245 246 246
202 198 193 189 185 183 181 178 176 177 179 179 178 175 173 173 181 195 209 218 215 208 202 199 197 193 187 185 186 189 194 197 200 203 206 211 218 224 227 227 227 229 233 236 238 240 243 247 249 251 251 251 250 248 248 248 248 248 247 246 245 245 244 244 245 245 246 247 246
195 191 186 182 179 177 174 173 172 171 169 167 167 170 176 185 197 207 212 214 212 206 200 196 193 189 186 185 186 189 193 198 203 206 210 215 221 226 229 229 229 231 235 236 236 238 241 245 247 249 250 250 249 247 246 247 247 248 248 248 248 247 246 246 245 245 246 246 246
189 186 183 178 175 172 170 167 163 159 156 157 161 178 196 197 215 226 222 215 210 205 200 194 190 187 186 186 187 190 195 200 205 209 214 218 223 227 229 229 228 229 231 232 232 234 238 242 245 248 249 249 247 246 246 246 247 248 248 249 249 248 247 246 245 245 245 246 245
184 183 181 176 172 168 164 158 154 151 152 158 173 199 217 229 274 276 258 235 219 205 196 190 188 187 186 187 190 193 198 202 208 212 217 221 224 227 229 228 227 226 225 225 226 229 233 237 242 245 248 248 247 246 245 245 246 247 248 248 249 248 247 246 246 245 245 245 244
181 180 178 175 170 164 157 152 150 151 155 167 202 225 238 259 280 274 256 237 219 202 192 187 187 186 187 189 193 196 201 205 210 215 219 222 225 227 227 226 224 222 221 220 222 224 228 233 239 244 247 249 248 246 244 243 243 243 244 246 246 247 246 246 245 245 244 244 243
179 178 176 173 168 161 156 154 156 159 163 177 223 249 260 270 275 261 239 222 208 198 192 188 187 189 191 194 197 200 203 207 211 215 218 220 223 224 224 224 223 221 220 220 221 224 227 232 238 244 248 250 250 246 241 238 238 239 240 242 243 244 244 244 244 243 242 242 242
178 176 174 171 167 162 160 161 165 166 168 191 233 253 264 272 267 249 228 210 198 191 188 188 189 191 194 198 201 203 205 207 210 212 215 217 219 220 222 223 224 223 222 222 223 226 230 234 240 244 248 249 248 243 237 233 232 234 236 238 239 240 240 240 240 240 240 241 242
179 175 172 170 167 165 165 167 167 163 163 187 226 247 256 263 260 242 219 202 190 183 182 184 187 189 192 196 199 202 204 206 208 210 212 213 215 217 218 221 223 224 224 224 227 230 233 237 240 241 243 244 242 238 232 228 227 228 230 232 232 232 233 232 233 234 236 238 239
178 175 171 169 168 168 169 169 165 161 161 178 212 236 247 253 255 238 212 193 182 178 178 181 184 187 190 193 196 199 202 205 206 207 208 210 211 213 215 218 222 224 226 228 231 233 235 236 235 235 236 237 238 234 227 222 220 220 219 219 219 219 220 219 217 216 215 215 214
175 174 171 169 168 168 168 167 164 163 165 175 199 223 237 244 247 230 205 187 179 176 176 179 182 186 189 191 192 194 198 202 203 203 204 206 208 210 213 216 221 225 227 229 230 231 231 231 230 231 234 237 236 230 221 214 211 208 205 202 199 197 195 191 185 183 185 189 194
174 173 172 170 169 167 165 164 165 168 171 177 193 211 221 224 222 207 192 184 179 176 176 177 180 183 186 186 186 186 189 194 197 199 201 202 206 209 212 215 218 221 222 222 222 223 224 225 228 231 235 237 234 224 213 205 200 196 191 186 181 175 170 167 169 173 177 183 191
173 174 173 170 167 165 164 166 169 174 177 180 190 200 205 205 195 184 178 176 176 175 174 173 175 177 179 179 177 175 176 181 186 191 195 198 202 205 208 209 209 209 210 212 213 215 218 220 222 225 227 228 223 213 203 195 189 185 180 176 169 162 157 159 166 170 172 176 181
172 172 171 168 166 166 167 169 172 176 177 177 184 191 195 194 179 171 169 169 170 169 168 168 168 169 171 171 170 169 170 172 175 181 187 191 193 194 197 198 198 196 196 198 201 204 206 205 203 201 203 206 204 199 193 187 181 175 171 168 164 158 154 154 158 161 162 163 166
Height
770 771 772 774 775 776 777 778 780 781 782 783 784 785 786 788 789 790 791 792 792 793 794 795 797 798 799 801 802 803 804 806 807 808 810 811 812 813 814 815 817 818 819 820 821 822 823 824 825 826 827 828 829 830 831 831 832 832 833 834 834 835 835 836 837 837 838 839 839
769 770 772 773 774 775 777 778 779 780 781 782 783 784 785 787 788 789 790 791 791 792 794 795 796 798 799 800 801 802 804 805 806 807 809 810 811 812 814 815 816 817 818 820 820 822 822 823 824 825 826 827 828 829 830 830 831 832 832 833 833 834 835 835 836 837 838 838 839
768 770 771 772 773 775 776 777 778 779 780 781 782 783 785 786 787 788 789 790 791 792 793 795 796 797 798 799 800 801 803 804 805 807 808 809 811 812 813 814 815 817 818 819 820 821 822 823 824 825 826 826 827 828 829 829 830 830 831 832 832 833 834 835 835 836 837 838 838
767 768 770 771 772 773 774 775 776 778 779 780 782 783 784 785 786 787 788 789 790 792 793 794 795 796 797 798 800 801 802 803 805 806 807 809 810 811 812 813 814 816 817 818 819 820 821 822 823 824 825 825 826 827 828 828 829 830 830 831 832 832 833 834 835 836 837 837 837
766 767 768 769 770 771 773 774 775 777 778 779 781 782 783 784 785 786 787 789 789 790 792 793 794 795 797 798 799 800 801 802 804 805 807 808 809 810 811 812 814 815 816 817 818 819 820 822 823 824 824 825 825 826 827 827 828 829 830 830 831 832 833 834 834 835 836 836 837
764 766 767 768 769 770 772 773 775 776 777 778 780 780 781 783 784 785 786 787 788 789 791 792 793 795 796 797 798 799 800 802 803 805 806 807 808 809 810 812 813 814 815 816 817 818 820 821 822 823 824 824 825 825 826 827 828 828 829 830 831 831 832 833 834 834 835 835 836
763 765 766 767 768 770 771 772 774 775 776 777 778 779 780 781 782 783 785 786 787 788 790 791 792 793 795 796 797 798 800 801 802 804 805 806 807 808 809 811 812 813 814 815 817 818 819 820 822 822 823 823 824 825 825 826 827 828 829 829 830 831 832 832 833 833 834 834 834
762 764 765 766 767 769 770 771 773 774 775 776 777 777 778 780 781 782 783 785 786 787 788 790 791 792 794 795 796 798 799 800 802 803 804 805 806 807 809 810 811 812 814 815 816 817 819 820 821 821 822 822 823 824 825 826 827 827 828 828 829 830 830 831 831 832 832 832 832
762 763 764 765 766 767 769 770 771 772 773 774 775 776 777 778 780 781 782 784 785 786 788 789 790 792 793 794 796 797 798 800 801 802 803 805 806 807 808 809 810 812 813 814 815 816 818 819 820 820 821 822 822 823 824 825 826 826 827 827 828 828 829 829 830 830 830 830 830
760 761 763 764 765 766 768 769 770 771 772 773 774 775 776 777 779 780 781 782 784 786 787 788 790 791 793 794 795 796 798 799 800 802 803 804 805 806 807 808 809 810 812 813 814 815 817 818 819 819 820 821 822 822 823 824 825 825 825 826 826 827 827 827 827 828 828 828 829
758 760 761 762 764 765 767 768 769 770 771 772 773 774 775 776 777 779 780 782 784 785 786 788 789 790 792 793 794 795 797 798 799 800 802 802 803 804 805 807 808 809 811 812 813 814 815 816 817 818 819 820 821 821 822 822 823 824 824 824 825 825 825 825 826 826 826 827 827
757 758 760 761 762 764 765 766 767 768 769 770 772 773 774 775 776 778 780 782 783 784 786 787 788 789 791 792 793 794 795 796 797 799 800 801 802 803 804 806 807 808 809 810 812 813 814 815 816 817 818 818 819 820 820 821 822 822 823 823 824 824 824 824 825 825 825 826 826
756 757 758 760 761 762 764 765 766 767 768 769 770 772 773 774 776 778 779 781 782 784 785 786 787 788 789 790 791 792 794 795 796 797 798 799 800 801 802 804 805 807 808 809 810 811 812 813 814 815 816 817 817 818 819 820 821 821 822 822 823 823 823 824 824 824 824 825 825
754 756 757 758 760 761 762 763 764 765 766 767 769 771 772 774 775 777 779 780 782 783 784 785 786 787 788 789 790 791 792 793 794 795 796 797 798 799 800 802 803 805 806 807 808 809 810 811 812 813 814 815 816 817 818 819 820 821 821 822 822 822 822 823 823 823 824 824 824
753 754 755 756 758 759 760 761 762 764 765 766 768 770 772 773 775 776 777 779 780 782 783 784 785 785 786 787 788 789 790 791 792 793 794 795 796 797 799 800 802 803 804 805 806 807 808 809 810 811 812 813 814 815 816 817 818 819 819 820 820 821 821 822 822 823 823 823 823
751 752 753 755 756 757 758 759 761 762 764 765 767 769 770 772 773 774 776 777 778 780 781 782 783 783 784 785 786 787 788 790 791 792 793 794 795 797 798 799 800 801 802 803 804 805 806 807 808 809 810 811 812 812 813 813 814 815 816 816 817 818 820 821 822 822 822 822 822
749 750 752 753 754 755 756 757 759 761 762 764 765 767 768 770 771 772 773 774 776 777 778 779 780 781 782 783 784 785 787 788 789 790 792 793 795 796 797 798 800 800 801 802 803 804 805 806 807 808 808 809 810 811 811 811 812 812 813 814 814 815 817 819 820 820 820 821 821
747 748 749 751 752 753 754 755 757 759 760 762 763 765 766 767 768 770 770 771 773 774 775 776 777 778 779 780 782 783 785 786 788 789 791 792 794 795 797 798 799 800 801 802 803 804 804 805 806 806 807 808 809 809 810 810 810 811 811 812 812 814 815 817 818 818 819 820 820
744 746 747 748 749 750 752 754 755 757 758 760 761 762 764 765 766 767 768 769 770 771 772 774 775 776 777 778 780 782 783 785 787 788 790 792 793 795 796 798 799 800 801 801 802 802 802 803 803 804 805 806 807 807 808 808 808 809 810 810 811 813 814 815 816 817 818 819 820
742 743 744 745 747 748 750 752 753 755 756 758 759 760 761 763 764 765 765 766 767 769 770 771 773 774 775 777 778 780 782 784 786 788 790 792 793 795 796 797 798 799 799 800 799 800 800 801 801 802 803 803 804 805 805 806 806 807 808 809 810 812 813 815 816 816 817 818 818
739 740 742 743 745 747 748 750 752 753 755 756 757 758 759 760 762 763 763 764 766 767 769 770 771 772 773 775 777 779 781 783 785 788 790 792 794 795 796 796 797 797 798 798 798 798 799 799 800 800 801 802 802 803 803 804 805 806 807 808 810 811 812 813 814 815 816 816 816
736 738 740 742 743 745 747 748 750 752 753 754 755 756 757 759 760 761 762 764 765 766 767 768 769 770 772 774 776 778 780 781 784 786 789 791 793 794 795 795 796 796 796 796 796 797 797 798 799 799 800 800 801 801 802 803 804 805 806 807 808 810 811 812 812 813 814 814 814
734 736 738 740 742 744 745 747 749 750 752 753 754 755 756 758 759 760 762 763 764 765 767 768 769 770 771 773 775 777 778 780 782 785 787 788 790 792 793 794 795 795 794 794 795 795 796 797 798 798 799 799 800 800 801 802 803 804 805 806 807 808 809 810 810 811 811 811 812
733 735 737 739 741 742 744 746 747 749 750 752 753 754 755 757 758 760 761 762 764 765 767 768 770 771 772 773 775 776 778 779 781 783 785 787 788 790 791 792 792 792 792 793 793 794 795 796 797 797 798 798 799 799 800 801 802 802 803 804 805 807 807 808 809 809 809 809 810
732 734 736 737 739 741 742 744 745 747 748 750 751 753 755 756 758 759 760 762 763 764 766 767 770 771 772 774 775 776 777 779 780 782 784 785 787 788 789 789 789 790 790 791 792 793 794 795 796 797 797 798 798 798 799 800 800 801 802 803 804 805 806 807 807 807 808 808 808
731 733 734 735 737 738 740 741 743 744 746 747 749 751 753 755 757 758 760 761 762 764 765 766 768 770 771 773 774 776 777 778 779 781 782 783 784 785 786 786 786 787 788 789 790 791 792 794 795 796 796 797 797 797 798 798 799 800 801 802 803 804 805 805 806 806 806 806 807
729 731 732 733 734 735 737 739 740 741 742 744 747 749 751 753 755 757 759 761 762 764 765 765 767 768 770 771 772 774 776 777 779 780 781 782 782 783 783 783 784 784 785 787 788 790 791 792 794 795 795 796 796 796 797 797 798 799 800 801 802 803 803 803 804 804 805 805 806
726 728 729 731 732 733 735 736 737 739 740 741 743 745 747 750 752 755 758 760 762 763 764 765 766 767 768 769 770 772 774 776 777 779 780 780 781 781 781 781 782 782 783 785 786 788 789 791 792 793 794 795 795 795 796 797 798 799 799 800 801 801 802 802 802 803 804 804 805
724 725 727 729 731 732 733 735 736 738 740 741 743 744 745 746 748 751 754 756 758 759 760 762 764 765 766 767 768 770 772 774 776 777 778 778 779 779 780 780 780 780 781 783 784 786 787 789 790 792 792 793 794 795 795 796 797 798 798 799 799 800 800 801 801 802 803 804 805
722 724 726 727 729 730 731 733 734 737 739 742 744 745 746 746 747 749 751 752 753 754 756 758 760 762 763 765 766 768 770 772 774 775 776 776 777 777 778 779 779 779 780 781 782 784 786 787 789 790 791 792 793 794 794 795 796 797 797 798 798 799 799 800 800 801 802 803 804
720 722 724 726 727 728 730 731 733 735 738 740 743 745 746 747 748 749 750 751 751 752 754 756 757 759 760 762 764 766 767 769 771 773 773 774 774 775 776 777 778 778 778 779 781 782 784 786 787 789 790 791 792 793 793 794 795 795 796 796 797 798 798 799 800 800 801 802 803
719 720 722 725 726 727 729 730 732 735 737 739 741 744 746 747 748 748 749 750 750 751 753 755 756 758 759 761 763 764 765 767 768 770 771 772 772 773 774 775 776 777 777 778 780 781 783 785 786 787 789 790 791 792 792 793 794 794 795 796 796 797 798 798 799 800 801 802 802
718 720 721 723 725 727 728 730 732 734 736 737 740 742 744 745 746 746 747 747 748 749 751 753 755 757 759 760 761 762 762 764 765 767 768 770 771 772 773 774 775 775 776 777 779 780 782 783 785 786 788 789 790 791 791 792 793 794 794 795 796 796 797 798 798 799 800 801 802
717 719 720 722 724 726 727 729 731 733 734 736 739 741 743 744 744 744 745 745 746 747 749 751 753 755 757 758 759 759 760 761 763 765 766 768 769 770 772 773 773 774 775 776 777 779 781 782 784 785 787 788 789 790 790 791 792 793 793 794 795 795 796 797 797 798 799 800 801
716 718 719 721 723 724 726 728 730 731 732 735 738 741 742 742 743 743 744 744 744 746 747 749 751 753 755 756 757 757 758 760 761 763 764 766 768 769 771 772 773 773 774 775 777 778 780 781 783 784 785 786 787 788 789 790 791 792 792 793 794 795 795 796 797 798 799 799 800
715 716 718 720 721 723 724 726 727 729 731 734 737 740 741 742 742 743 743 743 743 745 746 748 750 752 754 755 755 756 757 758 759 761 763 765 767 768 770 771 772 773 774 775 776 777 779 780 781 782 783 785 786 787 788 789 790 791 791 792 793 794 795 795 796 797 798 799 800
713 715 717 719 720 722 723 724 725 727 729 732 735 738 740 741 742 743 743 743 743 744 745 747 749 751 752 753 754 755 756 757 759 760 762 764 766 768 769 770 771 772 773 774 775 776 777 778 779 780 782 783 784 785 787 788 789 790 790 791 792 793 794 795 796 797 798 798 799
712 714 716 717 719 720 722 723 724 725 727 729 733 736 738 740 741 742 742 742 743 744 745 747 748 750 751 753 754 756 757 758 759 761 762 764 766 767 768 769 770 771 772 773 774 775 776 777 778 779 780 782 783 784 785 786 787 788 790 791 792 793 794 795 796 796 797 797 797
712 714 715 717 718 720 721 722 723 724 725 727 730 734 736 738 740 741 741 742 742 743 745 746 748 750 751 753 755 757 759 759 760 761 762 764 765 766 767 768 769 770 771 772 773 774 775 776 777 778 779 780 781 782 783 785 786 787 789 790 791 793 794 795 795 795 795 796 797
712 714 715 717 718 719 720 722 723 724 725 726 729 732 735 736 738 739 740 742 743 744 745 747 748 750 752 754 755 757 758 759 760 761 762 764 765 765 766 767 768 769 771 772 772 773 774 775 776 777 778 779 780 781 782 784 785 787 788 790 791 792 793 794 794 794 795 796 796
712 714 715 717 718 719 720 721 723 724 725 727 729 732 734 735 737 739 740 742 743 745 746 747 749 751 752 754 755 756 757 758 760 761 762 763 764 765 766 767 768 769 770 771 772 773 773 774 775 776 777 777 779 780 781 783 785 786 788 789 791 792 792 793 794 794 795 795 796